Location: Kearney
(40.6990°N, 99.0810°W)
Time: 23:21:19
(UTC-05:00)

Daily predictions for brighter satellites

Satellite Brightness Start Highest point End
(mag) Time Altitude Azimuth Time Altitude Azimuth Time Altitude Azimuth
Cosmos 1933 3.6 20:57:27 10° SSE 21:01:20 48° E 21:05:13 10° NNE
Cosmos 1867 3.8 20:59:40 10° NNW 21:05:05 61° NE 21:10:27 10° SE
Milstar 3 4.2 20:57:02 10° WSW 21:05:12 30° SSW 21:11:10 10° SE
Cosmos 2263 Rocket 2.3 21:02:22 10° NNW 21:07:57 87° WSW 21:13:33 10° SSE
Cosmos 1862 3.3 21:07:35 10° N 21:11:39 80° E 21:15:41 10° S
Cosmos 2242 Rocket 4.0 21:07:17 10° SSW 21:11:45 68° W 21:16:13 10° N
Cosmos 1408 3.3 21:10:29 10° NNW 21:14:05 56° W 21:17:39 10° S
NOSS 3-1 (C) 4.3 21:12:30 10° SSE 21:16:52 23° ESE 21:21:32 10° ENE
Cosmos 1825 3.1 21:15:19 10° NNW 21:19:01 51° W 21:22:42 10° S
Cosmos 1655 Rocket 4.1 21:12:50 10° N 21:19:15 88° E 21:25:35 10° S
Cosmos 2322 Rocket 3.7 21:17:46 10° SW 21:23:02 41° WNW 21:28:21 10° N
Cosmos 2279 Rocket 4.1 21:17:04 10° S 21:23:18 88° W 21:29:34 10° N
USA 229 DEB 3.7 21:17:22 10° SSW 21:24:07 68° ESE 21:31:00 10° NE
USA 229 3.7 21:17:29 10° SSW 21:24:13 68° ESE 21:31:06 10° NE
BREEZE-M DEB (TANK) 4.5 21:19:47 10° WNW 21:24:35 70° NNE 21:45:12 10° ESE
Cosmos 2237 4.3 21:23:28 10° S 21:29:00 53° ESE 21:34:34 10° NNE
Cosmos 2360 Rocket 2.2 21:23:29 10° SSW 21:29:08 90° ESE 21:34:51 10° NNE
NOSS 3-1 (A) 4.4 21:30:22 10° SSE 21:34:42 23° ESE 21:39:20 10° ENE
Cosmos 1908 Rocket 3.6 21:30:27 10° N 21:34:45 60° E 21:38:53 11° SSE
ATLAS 5 CENTAUR R/B 2.7 21:29:05 10° NW 21:35:07 70° WSW 21:41:37 10° SSE
BREEZE-M DEB (TANK) 4.1 21:32:00 10° WSW 21:36:04 88° SSE 21:47:31 10° ENE
Resurs 01 Rocket 3.1 21:32:59 10° SSW 21:37:06 37° W 21:41:15 10° NNW
COSMOS 2428 2.9 21:33:20 10° S 21:38:45 48° ESE 21:44:13 10° NE
Helios 1A 3.1 21:35:50 10° S 21:40:04 81° WSW 21:44:21 10° NNW
Cosmos 1939 Rocket 2.8 21:36:48 12° SSE 21:40:26 67° ENE 21:44:24 10° N
SJ-11-01 4.2 21:35:53 10° SSE 21:40:32 72° ENE 21:45:12 10° N
CZ-4B DEB 2.5 21:38:30 15° SSE 21:40:56 78° ENE 21:43:58 10° N
ARGOS 4.4 21:41:15 16° ESE 21:44:07 24° ENE 21:48:20 10° NNE
Abrixas rocket 4.2 21:42:36 10° NW 21:45:20 23° N 21:47:58 10° ENE
Cosmos 1777 Rocket 4.3 21:41:09 10° N 21:46:18 51° ENE 21:49:46 20° SE
USA 267 3.8 21:40:59 10° NE 21:47:25 62° NW 21:53:50 10° WSW
YAOGAN 6 3.0 21:46:02 22° SE 21:47:58 44° ENE 21:51:24 10° N
Cosmos 1606 4.1 21:48:18 19° E 21:48:29 19° E 21:51:13 10° NE
Okean 1-7 3.4 21:45:24 13° SSE 21:49:01 45° E 21:53:14 10° NNE
Cosmos 1782 Rocket 3.8 21:45:23 10° N 21:49:40 51° E 21:52:23 21° SSE
Sich 1 Rocket 3.6 21:46:21 10° N 21:50:52 89° W 21:55:09 11° S
Atlas Centaur 2 3.4 21:45:42 10° WSW 21:51:19 34° S 21:55:28 20° SE
Cosmos 2322 4.0 21:46:17 10° SSW 21:51:59 70° WNW 21:57:41 10° NNE
Meteor 1-25 Rocket 4.2 21:59:06 10° N 22:04:38 66° ENE 22:08:08 23° SSE
Cosmos 968 Rocket 4.2 22:00:48 10° NNW 22:05:50 51° WSW 22:10:35 12° S
MetOp-A 4.4 22:03:40 25° SE 22:06:30 50° ENE 22:11:40 10° N
Meteor 2-10 Rocket 4.4 22:01:55 10° SSW 22:07:38 58° WNW 22:13:19 10° N
Cosmos 1844 Rocket 2.7 22:03:01 10° NNW 22:08:34 65° ENE 22:11:28 28° SE
Meteor 1-20 Rocket 4.3 22:03:35 10° N 22:09:11 64° ENE 22:12:29 25° SSE
Cosmos 2237 Rocket 3.0 22:08:38 27° ESE 22:09:32 28° ESE 22:14:19 10° NE
Okean 2 Rocket 3.1 22:06:17 10° N 22:10:46 62° E 22:12:43 32° SSE
Meteor 1-14 Rocket 4.3 22:05:30 10° NNW 22:11:14 80° W 22:16:02 16° S
TRAILBLAZER 4.5 22:08:00 10° SSW 22:12:31 72° ESE 22:17:04 10° NE
CZ-4C R/B 3.6 22:06:01 10° NNW 22:12:39 41° NE 22:17:07 22° ESE
Helios 1B rocket 4.0 22:10:21 10° N 22:14:07 36° WNW 22:17:52 10° SW
Cosmos 2333 4.1 22:08:35 10° SSW 22:14:18 84° ESE 22:20:07 10° NNE
Cosmos 2278 Rocket 3.2 22:10:14 10° N 22:15:17 32° ENE 22:17:25 24° E
Cosmos 2333 Rocket 2.5 22:13:47 18° S 22:17:42 46° ESE 22:23:12 10° NE
USA 234 3.3 22:17:39 27° ESE 22:21:28 73° NE 22:28:00 10° NW
Cosmos 1703 Rocket 4.5 22:17:53 10° SSW 22:22:11 49° W 22:26:28 10° N
Cosmos 1633 3.7 22:19:44 10° NNE 22:22:38 28° ENE 22:22:38 28° ENE
Meteor 2-6 Rocket 4.4 22:24:06 27° SSE 22:27:21 60° E 22:33:12 10° NNE
Envisat 4.4 22:23:49 10° SSW 22:28:24 34° W 22:33:01 10° NNW
Cosmos 2219 Rocket 2.0 22:25:14 10° SSW 22:30:48 75° ESE 22:36:26 10° NNE
SPOT 5 2.7 22:37:06 50° SE 22:38:15 72° ENE 22:42:48 10° N
SeaSat 1 3.1 22:38:34 35° E 22:39:40 40° ENE 22:44:17 10° NNW
Gbstr 26 Del rocket 4.4 22:36:25 10° SW 22:43:56 66° SE 22:52:01 10° ENE
ERS-1 Rocket 3.6 22:41:58 25° SSW 22:44:37 51° W 22:49:31 10° NNW
Cosmos 2151 Rocket 3.5 22:41:11 10° N 22:45:39 72° E 22:46:05 66° SE
H-2A R/B 2.1 22:47:19 49° E 22:47:58 52° ENE 22:52:44 10° N
NOSS 0 Rocket 3.8 22:44:09 21° SSW 22:48:24 73° ESE 22:54:32 10° NNE
Cosmos 1417 Rocket 4.4 22:47:25 36° S 22:50:09 75° E 22:56:31 10° N
Cosmos 1674 Rocket 4.0 22:52:48 45° ENE 22:52:48 45° ENE 22:56:16 10° NNE
Cosmos 1745 Rocket 4.3 22:46:27 10° N 22:52:38 51° ENE 22:53:58 44° ESE
Okean 1 Rocket 4.2 22:50:38 10° NNE 22:54:01 31° ENE 22:54:01 31° ENE
Cosmos 1782 3.7 22:54:00 32° SW 22:55:26 47° W 22:59:19 10° N
Cosmos 1570 Rocket 4.2 22:51:52 19° SSW 22:55:43 72° WNW 23:01:01 10° NNE
Landsat 7 4.2 22:55:49 48° ENE 22:55:54 48° ENE 23:00:30 10° N
Cosmos 1937 Rocket 4.4 22:51:53 10° N 22:56:36 33° ENE 22:56:57 32° ENE
Cosmos 1602 4.2 22:53:06 10° N 22:56:12 51° NNE 22:56:12 51° NNE
ASTEX 1 3.6 23:00:41 53° E 23:00:43 53° E 23:05:33 10° N
H-2A R/B 2.8 23:04:32 41° NE 23:04:32 41° NE 23:08:07 10° N
Iridium 4 Rocket 4.0 23:01:16 10° NNE 23:04:12 36° NE 23:04:12 36° NE
Cosmos 1346 Rocket 3.2 23:07:05 61° N 23:07:05 61° N 23:10:27 10° N
NOSS 3-1 (C) 4.0 23:01:23 10° SW 23:07:04 57° NW 23:13:28 10° NNE
Cosmos 2208 Rocket 4.5 23:05:31 20° SW 23:09:07 61° WNW 23:14:24 10° NNE
DMSP B5D2-2 4.2 23:04:37 10° NNE 23:09:30 56° E 23:09:30 56° E
Terra 2.3 23:11:24 46° ENE 23:11:24 46° ENE 23:15:37 10° N
Cosmos 2297 4.3 23:08:39 10° N 23:14:03 42° ENE 23:14:31 41° ENE
Meteor 1-27 Rocket 3.7 23:15:33 54° SSW 23:16:52 80° W 23:22:29 10° N
Cosmos 2150 Rocket 4.2 23:18:04 10° NNW 23:23:27 60° ENE 23:23:27 60° ENE
ARGOS 3.9 23:22:46 38° SW 23:24:02 45° W 23:29:11 10° NNW
NOSS 3-1 (A) 3.9 23:19:13 10° SW 23:24:56 58° NW 23:31:22 10° NNE
Cosmos 1898 Rocket 3.4 23:19:46 10° NNW 23:24:50 81° NE 23:24:50 81° NE
Cosmos 1300 Rocket 3.9 23:21:02 10° N 23:24:42 61° NNW 23:24:42 61° NNW
ATLAS 2AS CENTAUR R/B 3.5 23:26:52 40° E 23:26:52 40° E 23:33:20 10° NE
Cosmos 1980 4.1 23:23:56 29° SW 23:26:45 62° WNW 23:32:22 10° NNE
Cosmos 1553 Rocket 4.3 23:30:41 41° SW 23:32:47 63° W 23:38:56 10° N
SL-16 R/B 2.7 23:35:10 48° ENE 23:35:10 48° ENE 23:39:28 10° NNE
SPOT 1/Viking Rocket 4.2 23:35:38 44° WSW 23:36:08 46° W 23:41:09 10° NNW
Atlas Centaur 2 4.1 23:34:29 10° WSW 23:38:06 23° SW 23:38:06 23° SW
Meteor 1-11 Rocket 4.3 23:40:43 10° NNW 23:46:00 47° W 23:46:32 45° WSW
Cosmos 1814 Rocket 4.3 23:47:03 59° NNE 23:47:03 59° NNE 23:51:13 10° NNE
Cosmos 2315 Rocket 4.2 23:46:48 57° ENE 23:46:48 57° ENE 23:52:21 10° NNE
ATLAS CENTAUR R/B 3.4 23:48:56 22° NNE 23:48:56 22° NNE 23:50:27 10° NNE
ATLAS 3B R/B 3.6 23:42:45 10° NNW 23:48:59 36° NE 23:50:28 32° ENE
Cosmos 2237 Rocket 3.3 23:50:19 23° WSW 23:53:22 41° WNW 23:58:45 10° N
